{"data":{"norad_id":65912,"intl_designator":"2025-225C","name":"STARLINK-35508","alt_names":[],"object_type":"PAYLOAD","status":"ACTIVE","operator":null,"country":"US","launch_date":"2025-10-08","launch_site_code":"AFWTR","launch_vehicle":null,"mission":null,"orbit_class":"UNKNOWN","rcs_meters":null,"size_class":null,"mass_kg":null,"dimensions":null,"purposes":["comms"],"wikipedia_slug":null,"has_3d_model":false,"image_url":null,"decayed_at":null,"tle_current":{"epoch":"2026-09-20T21:39:38.756160Z","epoch_age_seconds":68359,"freshness":"FRESH","line1":"1 65912U 25225C   26263.90253190  .00013230  00000+0  40207-3 0  9991","line2":"2 65912  53.1600 335.5635 0001640  85.4849 274.6341 15.34393950 54344","mean_motion":15.3439395,"eccentricity":0.000164,"inclination_deg":53.16,"raan_deg":335.5635,"arg_perigee_deg":85.4849,"mean_anomaly_deg":274.6341,"bstar":0.00040207,"rev_number":5434,"period_min":93.84812811599,"perigee_km":461.59932139274,"apogee_km":463.8431228896,"semimajor_km":6840.8582221412,"source":"CELESTRAK","updated_at":"2026-09-21T09:00:35.762489Z"}}}